Location: Oberkirch
(48.5323°N, 8.0787°E)
Time: 12:06:23
(UTC+00:00)

Courier 1B Rocket - Visible Passes

Search period start: 16 February 2026 00:00
Search period end: 26 February 2026 00:00
Orbit: 920 x 1201 km, 28.2° (Epoch: 16 February)

Date Brightness Start Highest point End Pass type
(mag) Time Alt. Az. Time Alt. Az. Time Alt. Az.
18 Feb 7.2 19:48:53 10° SSW 19:48:54 10° S 19:48:54 10° S visible
20 Feb 7.1 19:39:22 10° SSW 19:40:31 11° S 19:40:31 11° S visible
21 Feb 7.1 18:39:00 10° S 18:40:18 11° S 18:41:36 10° SSE visible
22 Feb 7.1 19:30:39 10° SSW 19:31:29 10° S 19:32:07 10° S visible
23 Feb 7.1 18:29:22 10° SSW 18:30:43 11° S 18:32:03 10° SSE visible
